Location: Middelsbur
(53.6609°N, 7.5020°E)
Time: 13:07:55
(UTC+00:00)

Cosmos 1680 Rocket - Pass Details

Date: 06 July 2020
Orbit: 760 x 781 km, 74.1° (Epoch: 06 August)

Event Time Altitude Azimuth Distance (km) Brightness Sun altitude
Exits shadow 22:39:44 - 211° (SSW) 2,496 5.7 -12.8°
Reaches altitude 10° 22:40:10 10° 211° (SSW) 2,332 5.6 -12.9°
Maximum altitude 22:45:29 76° 298° (WNW) 811 3.7 -13.0°
Drops below altitude 10° 22:50:50 10° 24° (NNE) 2,348 6.9 -13.2°
Sets 22:53:14 0° 27° (NNE) 3,279 7.7 -13.2°
